Regional Weather Roundup
Issued by NWS

Home | Current Version | Previous Version | Graphics & Text | Print | Product List | Glossary Off
Versions: 1 2 3 4 5 6 7 8 9 10 11 12 13 14 15 16 17 18 19 20 21 22 23 24 25 26 27 28 29 30 31 32 33 34 35 36 37 38 39 40 41 42 43 44 45 46 47 48 49 50

000
ASUS43 KDTX 250110
RWRMI
MICHIGAN HOURLY REGIONAL WEATHER ROUNDUP
NATIONAL WEATHER SERVICE DETROIT/PONTIAC MI
900 PM EDT TUE MAY 24 2016

NOTE: "FAIR" INDICATES FEW OR NO CLOUDS BELOW 12,000 FEET WITH NO
SIGNIFICANT WEATHER AND/OR OBSTRUCTION TO VISIBILITY.

MIZ047>049-052>055-059>063-066>070-074>076-081>083-250200-
SOUTHEAST LOWER MICHIGAN

CITY           SKY/WX    TMP DP  RH WIND       PRES   REMARKS
ADRIAN         CLEAR     75  50  41 SW5       30.01S
ALMA           CLEAR     72  50  44 CALM      29.96F
ANN ARBOR      CLEAR     73  51  46 SW6       30.00S
BAD AXE        CLEAR     74  48  40 W3        29.96S
CARO           CLEAR     73  51  46 CALM      29.96S
DETROIT CITY   CLEAR     74  47  38 SW6       29.98S
DETROIT        MOCLDY    78  50  37 SW9       30.00R
FLINT          CLEAR     80  48  32 SW3       29.97F
GROSSE ILE     CLEAR     68  59  73 S6        29.99S
HILLSDALE      CLEAR     75  42  31 S3        30.01F
HOWELL         CLEAR     76  47  36 CALM      29.99S

CITY           SKY/WX    TMP DP  RH WIND       PRES   REMARKS
JACKSON        CLEAR     75  47  36 S6        29.99F
LAMBERTVILLE   CLEAR     75  48  37 CALM      30.02S
LANSING        CLEAR     76  50  40 SW6       29.98F
LAPEER         FAIR      77  46  32 W3        29.98S
MASON          CLEAR     75  54  47 S3        29.98F
MONROE         CLEAR     75  51  42 SW5       30.00R
PONTIAC        PTCLDY    78  50  37 SW5       29.98S
PORT HOPE        N/A     78  49  35 VRB5      29.93R
PORT HURON     CLEAR     70  50  49 S3        29.98S
TRI CITIES     PTCLDY    76  45  33 W5        29.96S
MIDLAND        FAIR      74  47  38 CALM      29.95S
TROY           PTCLDY    81  47  30 SW6       30.00S
SAGINAW HB     CLEAR     77  45  31 W5        29.96S
$$
MIZ043>046-050>051-056>058-064>065-071>073-077>080-250200-
SOUTHWEST LOWER MICHIGAN

CITY           SKY/WX    TMP DP  RH WIND       PRES   REMARKS
BATTLE CREEK   CLEAR     73  50  44 SW6       29.99S
BENTON HARBOR  PTCLDY    76  52  43 SE5       29.95S
BIG RAPIDS     CLOUDY    72  53  51 CALM      29.95F
COLDWATER      CLEAR     76  46  33 CALM      29.99F
FREMONT        FAIR      74  50  41 CALM      29.94F
HOLLAND        PTCLDY    75  52  44 S3        29.95F
GRAND RAPIDS   MOCLDY    76  51  41 S5        29.96F
IONIA          FAIR      77  47  35 W5        29.96F
KALAMAZOO      CLEAR     77  53  43 CALM      29.98S
LUDINGTON      MOCLDY    67  55  67 S6        29.94F
MARSHALL       CLEAR     75  50  41 S3        29.98S
MOUNT PLEASANT CLOUDY    76  48  37 SW7       29.95F
MUSKEGON       CLOUDY    76  48  37 S7        29.94F
SOUTH HAVEN    PTCLDY    74  55  51 CALM      29.95S
$$
MIZ016>042-250200-
NORTHERN LOWER MICHIGAN

CITY           SKY/WX    TMP DP  RH WIND       PRES   REMARKS
ALPENA         PTCLDY    70  46  42 NW18G26   29.94R
BEAVER ISLAND  MOCLDY    55  54  95 E5        29.93F
BELLAIRE       RAIN      61  51  68 N8        29.97R
CADILLAC       CLOUDY    72  51  48 SW8       29.96F
CHARLEVOIX     RAIN      55  51  86 W7        29.99F
FRANKFORT      CLOUDY    71  58  64 S7        29.92F
GAYLORD        CLOUDY    74  44  34 NW3       29.96R
GRAYLING       CLOUDY    76  46  35 SW6       29.96S
HARBOR SPRINGS CLOUDY    56  50  80 SW6       29.97R
HOUGHTON LAKE  CLOUDY    74  44  34 SW7       29.97R
MANISTEE       CLOUDY    72  52  49 S6        29.94S
OSCODA         CLOUDY    80  45  28 SW13      29.92R
PELLSTON       LGT RAIN  60  54  80 W3        29.96S
ROGERS CITY    CLOUDY    65  47  52 NW7       29.97S
TRAVERSE CITY  CLOUDY    76  54  46 SW8       29.91R
$$
MIZ007>008-015-250200-
EASTERN UPPER MICHIGAN

CITY           SKY/WX    TMP DP  RH WIND       PRES   REMARKS
KINROSS          N/A     59  59 100 SE5       29.93F
MACKINAC ISLAN LGT RAIN  56  51  82 SW6       29.95R
NEWBERRY       CLOUDY    61  60  97 CALM      29.93R FOG
S. S. MARIE    LGT RAIN  61  58  90 S3        29.93S FOG
MUNISING         N/A     46  45  96 CALM      29.95S
$$
MIZ004>006-011>014-085-250200-
CENTRAL UPPER MICHIGAN

CITY           SKY/WX    TMP DP  RH WIND       PRES   REMARKS
MANISTIQUE     PTCLDY    54  53  97 SE3       29.93S FOG
ESCANABA       PTCLDY    61  55  82 CALM      29.91F
MENOMINEE      MOCLDY    63  55  77 E5        29.91F
SAWYER-GWINN   FOG       48  46  93 NE7       29.97R VSB 1/2
$$
MIZ001>003-009>011-084-250200-
WESTERN UPPER MICHIGAN

CITY           SKY/WX    TMP DP  RH WIND       PRES   REMARKS
IRON MOUNTAIN  HVY RAIN  63  60  90 N17G30    29.93R VSB 1/4
HOUGHTON       CLOUDY    51  49  92 E5        29.97S
COPPER HARBOR    N/A     47  47 100 SE3       30.01R
$$

ABBREVIATIONS USED IN REMARKS
   TC - TEMPERATURE IN CELSIUS
  WCI - WIND CHILL INDEX
   HX - HEAT INDEX
  VSB - VISIBILITY





USA.gov is the U.S. government's official web portal to all federal, state and local government web resources and services.